FW8669 Weather Reports


time (UTC)temp
F
wind
direction
speed
knots
gust
knots
rain 1hr
in
rain 24hr
in
rain mn
in
humidity
%
barometer
mb
20260504110716 62 220 6.1 11.3 0.00 0.20 0.20 63 1012.8
20260504110212 62 198 7.8 13.0 0.00 0.20 0.20 64 1012.9
20260504100131 61 257 6.1 9.6 0.00 0.19 0.19 69 1012.7
20260504081524 63 198 17.4 25.2 0.00 0.19 0.19 66 1011.5
20260504081019 62 233 14.8 25.2 0.00 0.19 0.19 70 1011.5
20260504080516 62 151 13.0 28.7 0.00 0.19 0.19 69 1011.6
20260504050328 58 202 17.4 28.7 0.00 0.19 0.19 76 1011.5
20260504045825 57 252 15.6 26.9 0.00 0.19 0.19 77 1011.3
20260504045320 57 222 20.9 27.8 0.00 0.19 0.19 78 1011.4
20260504044817 56 225 21.7 25.2 0.00 0.19 0.19 76 1011.4
20260504044315 56 229 26.1 28.7 0.00 0.19 0.19 77 1011.9
20260504043812 57 236 22.6 37.4 0.00 0.19 0.19 76 1011.6
20260504043309 57 196 17.4 25.2 0.05 0.19 0.19 82 1011.7
20260504042806 58 201 12.2 20.9 0.00 0.18 0.18 81 1011.6
20260504042304 57 223 6.1 18.2 0.00 0.18 0.18 80 1011.5
20260504041759 57 201 16.5 19.1 0.00 0.18 0.18 79 1011.4
20260504041255 55 239 13.0 18.2 0.00 0.18 0.18 82 1011.6
20260504040751 55 239 12.2 17.4 0.07 0.18 0.18 85 1011.5
20260504040249 54 235 7.8 19.1 0.19 0.18 0.18 87 1011.8
20260504035744 53 227 14.8 19.1 0.66 0.16 0.16 88 1012.3
20260504035242 55 208 9.6 14.8 0.71 0.15 0.15 88 1012.0
20260504034740 59 212 13.0 15.6 0.05 0.04 0.04 72 1012.0
20260504034237 60 263 13.0 15.6 0.00 0.03 0.03 69 1011.7
20260504033734 61 241 15.6 25.2 0.00 0.03 0.03 69 1011.5
20260504033231 61 221 13.9 20.9 0.00 0.03 0.03 66 1011.5
20260504032728 61 208 15.6 28.7 0.00 0.03 0.03 65 1011.7
20260504032225 61 222 15.6 29.5 0.00 0.03 0.03 62 1011.6
20260504031722 61 249 19.1 29.5 0.00 0.03 0.03 69 1011.8
20260504031220 60 181 26.1 40.0 0.00 0.03 0.03 69 1011.6
20260504030715 60 187 17.4 26.1 0.00 0.03 0.03 72 1011.5
20260504030213 60 206 20.9 26.9 0.00 0.03 0.03 67 1011.8
20260504025709 60 199 15.6 23.5 0.00 0.03 0.03 65 1011.8
20260504025206 60 198 17.4 32.2 0.00 0.03 0.03 64 1011.9
20260504024703 60 209 19.1 28.7 0.00 0.03 0.03 65 1011.7
20260504024159 59 217 13.0 23.5 0.00 0.03 0.03 72 1011.9
20260504023656 59 206 18.2 22.6 0.00 0.03 0.03 70 1011.6
20260504023152 59 212 27.8 30.4 0.00 0.03 0.03 70 1011.8
20260504022648 59 187 23.5 30.4 0.00 0.03 0.03 69 1011.5
20260504022144 59 217 21.7 34.8 0.00 0.03 0.03 69 1011.7
20260504021643 59 230 20.9 26.9 0.00 0.03 0.03 68 1012.1
20260504021139 60 239 24.3 28.7 0.00 0.03 0.03 68 1012.0
20260504020636 60 233 13.9 33.0 0.00 0.03 0.03 64 1011.9
20260504020132 59 208 15.6 26.1 0.00 0.03 0.03 61 1011.9
20260504015629 58 208 15.6 29.5 0.00 0.03 0.03 65 1012.0
20260504015125 58 219 13.0 23.5 0.00 0.03 0.03 69 1012.3
20260504014621 58 210 20.9 26.1 0.00 0.03 0.03 72 1012.2
20260504014118 58 235 9.6 25.2 0.00 0.03 0.03 73 1012.5
20260504013616 57 218 13.9 26.9 0.00 0.03 0.03 71 1012.3
20260504013113 55 168 13.9 25.2 0.07 0.03 0.03 80 1012.4
20260504012610 55 223 19.1 32.2 0.00 0.02 0.02 80 1012.4
20260504012108 55 241 13.9 23.5 0.05 0.02 0.02 78 1012.5
20260504011604 56 236 20.0 25.2 0.00 0.01 0.01 73 1012.6
20260504011100 60 242 23.5 36.5 0.00 0.01 0.01 65 1012.4
20260504010556 60 217 19.1 26.1 0.00 0.01 0.01 64 1012.0
20260504010052 59 207 18.2 29.5 0.00 0.01 0.01 66 1012.1
20260504005549 59 199 20.0 27.8 0.00 0.01 0.01 69 1012.1
20260504005047 61 227 18.2 33.9 0.00 0.01 0.01 65 1012.2
20260504004544 61 243 25.2 33.0 0.00 0.01 0.01 57 1012.0
20260504004041 61 230 13.0 23.5 0.00 0.01 0.01 61 1011.9
20260504003537 61 228 22.6 30.4 0.00 0.01 0.01 62 1012.0
20260504003034 60 248 12.2 18.2 0.00 0.01 0.01 65 1012.2
20260504002531 59 231 13.0 22.6 0.00 0.01 0.01 64 1012.4
20260504002029 59 203 13.0 15.6 0.00 0.01 0.01 65 1012.2
20260504001526 59 238 13.9 21.7 0.00 0.01 0.01 65 1012.5
20260504001022 59 215 18.2 22.6 0.00 0.01 0.01 65 1012.5
20260504000520 61 243 15.6 33.9 0.00 0.01 0.01 66 1012.2
20260504000017 60 236 21.7 33.0 0.00 0.01 0.01 60 1012.2
20260503235515 59 221 19.1 28.7 0.00 0.01 0.01 65 1012.3
20260503235012 58 193 13.0 14.8 0.00 0.01 0.01 69 1012.3
20260503234509 57 237 12.2 13.9 0.00 0.01 0.01 73 1012.4
20260503234008 57 223 11.3 14.8 0.00 0.01 0.01 75 1012.7
20260503233503 57 239 6.1 14.8 0.00 0.01 0.01 75 1012.4
20260503232959 57 223 8.7 12.2 0.00 0.01 0.01 77 1013.0
20260503232457 56 231 11.3 13.9 0.00 0.01 0.01 77 1012.7
20260503231954 56 226 13.0 15.6 0.00 0.01 0.01 77 1013.0
20260503231452 55 232 11.3 18.2 0.07 0.01 0.01 75 1013.3
20260503230948 57 226 20.0 26.9 0.07 0.01 0.01 74 1013.6
20260503230445 59 214 10.4 13.0 0.00 0.00 0.00 63 1013.0
20260503225943 59 231 12.2 13.0 0.00 0.00 0.00 62 1013.0
20260503225439 59 208 8.7 15.6 0.00 0.00 0.00 64 1013.1
20260503224934 59 253 6.1 11.3 0.00 0.00 0.00 64 1013.0
20260503224432 59 222 9.6 13.0 0.00 0.00 0.00 64 1013.3
20260503223929 59 201 7.0 13.0 0.00 0.00 0.00 64 1013.4
20260503223427 59 237 7.0 11.3 0.00 0.00 0.00 64 1013.3
20260503222922 59 241 9.6 18.2 0.00 0.00 0.00 63 1013.4
20260503222421 60 254 9.6 15.6 0.00 0.00 0.00 63 1013.4
20260503221919 60 245 13.9 18.2 0.00 0.00 0.00 62 1013.7
20260503221417 60 247 7.8 15.6 0.00 0.00 0.00 62 1013.4
20260503220913 60 256 6.1 21.7 0.00 0.00 0.00 61 1013.5
20260503220410 58 236 17.4 25.2 0.00 0.00 0.00 66 1013.5
20260503215907 58 248 11.3 18.2 0.00 0.00 0.00 67 1013.7
20260503215404 57 226 7.8 13.0 0.00 0.00 0.00 66 1013.5
20260503214902 58 233 8.7 12.2 0.00 0.00 0.00 67 1013.3
20260503214359 58 231 9.6 14.8 0.00 0.00 0.00 66 1013.5
20260503213856 58 259 13.0 20.9 0.00 0.00 0.00 64 1013.6
20260503213354 62 240 17.4 26.1 0.00 0.00 0.00 59 1013.4
20260503212850 61 219 14.8 27.8 0.00 0.00 0.00 57 1013.6
20260503212348 61 209 7.8 15.6 0.00 0.00 0.00 62 1013.3
20260503211845 61 216 13.0 21.7 0.00 0.00 0.00 61 1013.1
20260503211342 61 229 19.1 22.6 0.00 0.00 0.00 63 1013.1
20260503210837 61 214 14.8 20.0 0.00 0.00 0.00 63 1013.4
20260503210335 60 229 12.2 14.8 0.00 0.00 0.00 65 1013.1
20260503205829 60 253 11.3 13.9 0.00 0.27 0.27 64 1013.5
20260503205326 61 223 8.7 15.6 0.00 0.27 0.27 63 1013.5
20260503204823 61 209 11.3 17.4 0.00 0.27 0.27 63 1013.3
20260503204321 61 204 15.6 19.1 0.00 0.27 0.27 63 1013.1
20260503203818 61 223 10.4 15.6 0.00 0.27 0.27 63 1013.4
20260503203315 61 212 12.2 20.9 0.00 0.27 0.27 62 1013.5
20260503202812 60 209 18.2 21.7 0.00 0.27 0.27 61 1013.5
20260503202310 61 233 13.9 20.0 0.00 0.27 0.27 60 1013.4
20260503201808 61 176 19.1 21.7 0.00 0.27 0.27 62 1013.5
20260503201304 60 241 17.4 21.7 0.00 0.27 0.27 60 1013.6
20260503200802 60 252 13.9 23.5 0.00 0.27 0.27 61 1013.7
20260503200257 61 210 12.2 21.7 0.00 0.27 0.27 62 1013.6
20260503195755 60 195 11.3 26.1 0.00 0.27 0.27 62 1013.3
20260503195251 60 244 16.5 19.1 0.00 0.27 0.27 62 1013.6
20260503194749 61 211 16.5 22.6 0.00 0.27 0.27 62 1013.8
20260503194245 60 209 16.5 19.1 0.00 0.27 0.27 60 1013.7
20260503193741 61 217 10.4 20.9 0.00 0.27 0.27 59 1013.6
20260503193237 61 234 15.6 25.2 0.00 0.27 0.27 60 1013.7
20260503192733 61 232 15.6 23.5 0.00 0.27 0.27 57 1013.8
20260503192228 61 219 14.8 26.9 0.00 0.27 0.27 58 1013.8
20260503191725 61 213 13.0 17.4 0.00 0.27 0.27 60 1013.5
20260503191222 61 198 12.2 20.0 0.00 0.27 0.27 60 1013.5
20260503190719 61 222 17.4 25.2 0.00 0.27 0.27 59 1013.6
20260503190216 61 240 23.5 27.8 0.00 0.27 0.27 58 1013.4
20260503185713 61 213 7.8 20.9 0.00 0.27 0.27 61 1013.3
20260503185208 61 234 14.8 27.8 0.00 0.27 0.27 60 1013.3
20260503184703 61 194 13.0 19.1 0.00 0.27 0.27 61 1013.3
20260503184200 61 193 13.9 20.0 0.00 0.27 0.27 60 1013.4
20260503183656 61 240 16.5 20.9 0.00 0.27 0.27 60 1013.5
20260503183154 61 235 17.4 21.7 0.00 0.27 0.27 61 1013.3
20260503182652 61 223 15.6 23.5 0.00 0.27 0.27 60 1013.0
20260503182150 61 200 19.1 26.1 0.00 0.27 0.27 56 1012.8
20260503181646 61 221 17.4 22.6 0.00 0.27 0.27 57 1012.9
20260503181143 61 240 14.8 17.4 0.00 0.27 0.27 60 1012.8
20260503180640 61 241 13.9 23.5 0.00 0.27 0.27 58 1012.8
20260503180138 61 190 14.8 20.0 0.00 0.27 0.27 60 1012.8
20260503175635 61 245 10.4 22.6 0.00 0.27 0.27 60 1012.5
20260503175132 61 227 19.1 27.8 0.00 0.27 0.27 59 1012.5
20260503174628 61 233 20.0 22.6 0.00 0.27 0.27 59 1012.6
20260503174126 62 233 19.1 23.5 0.00 0.27 0.27 59 1012.5
20260503173620 61 221 12.2 20.0 0.00 0.27 0.27 60 1012.5
20260503173117 62 242 13.9 17.4 0.00 0.27 0.27 59 1012.4
20260503172614 62 228 16.5 20.0 0.00 0.27 0.27 60 1012.2
20260503172112 62 222 11.3 20.0 0.00 0.27 0.27 59 1012.3
20260503171608 62 252 13.0 22.6 0.00 0.27 0.27 60 1012.2
20260503171106 62 227 12.2 18.2 0.00 0.27 0.27 58 1012.3
20260503170602 62 254 15.6 22.6 0.00 0.27 0.27 59 1012.1
20260503150954 63 217 20.9 29.5 0.00 0.27 0.27 67 1011.4
20260503150451 63 236 13.0 21.7 0.00 0.27 0.27 68 1011.4
20260503131344 60 277 8.7 11.3 0.00 0.27 0.27 85 1011.7
20260503130841 60 248 4.3 8.7 0.00 0.27 0.27 86 1011.2
20260503130338 59 296 10.4 13.9 0.00 0.27 0.27 86 1011.4